Retour au catalogue

THORAD AGENA D DEB

ActifLEO
NORAD 42534·DEBRIS·🇺🇸 United States

Lancé Apr 8, 1970 depuis Vandenberg Space Force Base

Loading…

Prochains Passages (prochaines 24 heures)

TLE

FraisSource: Space-Track

Époque: Sep 14, 2026, 18:53 UTC

1 42534U 70025SQ  26257.78732491  .00000077  00000-0  41791-3 0  9994
2 42534 101.7363   9.7167 0193274 266.0050  91.8934 12.95642488599934

Suivez THORAD AGENA D DEB en temps réel avec AllMySat

Download on the App Store